Regional Weather Roundup
Issued by NWS

Home | Current Version | Previous Version | Graphics & Text | Print | Product List | Glossary Off
Versions: 1 2 3 4 5 6 7 8 9 10 11 12 13 14 15 16 17 18 19 20 21 22 23 24 25 26 27 28 29 30 31 32 33 34 35 36 37 38 39 40 41 42 43 44 45 46 47 48 49 50

000
ASUS43 KMKX 271100
RWRWI

WISCONSIN REGIONAL WEATHER ROUNDUP
NATIONAL WEATHER SERVICE MILWAUKEE/SULLIVAN WI
500 AM CST THU NOV 27 2014

NOTE: "FAIR" INDICATES FEW OR NO CLOUDS BELOW 12,000 FEET WITH NO
SIGNIFICANT WEATHER AND/OR OBSTRUCTIONS TO VISIBILITY.

WIZ001-002-006>008-014>016-023>028-271200-
NORTHWEST WISCONSIN

CITY           SKY/WX    TMP DP  RH WIND       PRES   REMARKS
SUPERIOR ARPT  FAIR      -3  -8  77 W5        30.50R WCI -13
ASHLAND        CLOUDY     1  -3  83 W6        30.43R WCI -10
HAYWARD        FAIR      -3  -8  79 N3        30.39R
SIREN          CLEAR     -3  -7  82 NW5       30.45S WCI -14
CUMBERLAND     CLEAR      0  -8  71 NW10      30.40R WCI -17
RICE LAKE      CLEAR      0  -5  78 NW6       30.42R WCI -11
CHETEK         CLEAR      1  -4  80 NW3       30.40R
LADYSMITH      CLEAR      3  -1  83 NW9       30.37S WCI -11
EAU CLAIRE     NOT AVBL
MENOMONIE      CLEAR      5  -3  70 NW12      30.42R WCI -11
NEW RICHMOND   CLEAR      0  -5  79 N9        30.44S WCI -15
OSCEOLA        CLEAR      1  -4  77 NW9       30.49S WCI -14
$$

WIZ003>005-009-010-017-018-271200-
NORTH CENTRAL WISCONSIN

CITY           SKY/WX    TMP DP  RH WIND       PRES   REMARKS
MANITOWISH WTR LGT SNOW   9   6  85 N5        30.26R WCI   1
ARBOR VITAE    LGT SNOW   9   6  87 N5        30.26R WCI   1
WOODRUFF       LGT SNOW   9   6  87 N5        30.26R WCI   1
RHINELANDER    CLOUDY     8   4  83 NW5       30.26R WCI   0
EAGLE RIVER    LGT SNOW   8   4  82 NW6       30.24R WCI  -2
LAND O LAKES   LGT SNOW   8   4  84 N7        30.25S WCI  -3
PHILLIPS       LGT SNOW   6   2  84 NW3       30.30R
TOMAHAWK       LGT SNOW  10   6  83 NW10      30.28R WCI  -4
MEDFORD        CLOUDY     9   4  81 NW13      30.28R HAZE    WCI  -6
MERRILL        LGT SNOW  12   8  84 NW6       30.27R WCI   3
$$

WIZ029-030-035-036-043>047-271200-
CENTRAL WISCONSIN

CITY           SKY/WX    TMP DP  RH WIND       PRES   REMARKS
WAUSAU         LGT SNOW  13   8  81 NW10      30.27R WCI   0
MOSINEE        FLURRIES  14  12  92 NW10      30.27R WCI   1
MARSHFIELD     LGT SNOW  14   8  77 NW15      30.29R WCI  -1
STEVENS POINT  CLOUDY    13  10  85 NW6       30.28R WCI   4
WAUPACA        CLOUDY    21  16  81 NW12      30.27R WCI   9
WAUTOMA        NOT AVBL
WISC RAPIDS    CLOUDY    16   8  71 N12       30.31R WCI   3
CAMP DOUGLAS   CLOUDY    18  16  93 NW12      30.31R WCI   5
$$

WIZ011>013-019>022-031-037>040-048>050-271200-
NORTHEAST WISCONSIN

CITY           SKY/WX    TMP DP  RH WIND       PRES   REMARKS
ANTIGO         CLOUDY    10   6  82 N9        30.24R WCI  -3
SHAWANO        CLOUDY    23  15  74 N12       30.26R WCI  11
OCONTO         CLOUDY    19  14  81 N8G17     30.26R WCI   9
STURGEON BAY   CLOUDY    21  16  79 N16       30.23R WCI   7
GREEN BAY      LGT SNOW  22  18  85 N14       30.26R FOG     WCI   9
MANITOWOC      NOT AVBL
APPLETON       NOT AVBL
CLINTONVILLE   CLOUDY    21  18  86 NW7       30.26R WCI  13
OSHKOSH        CLOUDY    22  17  81 MISG      30.25R
$$

WIZ032>034-041-042-053>061-271200-
SOUTHWEST WISCONSIN

CITY           SKY/WX    TMP DP  RH WIND       PRES   REMARKS
LA CROSSE      CLOUDY    19  11  70 N9        30.37R WCI   8
SPARTA         FLURRIES  17  12  80 NW8       30.35R WCI   7
VIROQUA        MOCLDY    16  12  85 NW13      30.30R WCI   2
BOSCOBEL       CLOUDY    25  17  72 NW8       30.34R WCI  16
PRAIRIE DU CHI CLOUDY    23  15  72 NW13G18   30.35R WCI  11
PLATTEVILLE    CLOUDY    24  19  80 NW14G20   30.31R WCI  11
$$

WIZ056-057-062-063-064-067-068-271200-
SOUTH CENTRAL WISCONSIN

CITY           SKY/WX    TMP DP  RH WIND       PRES   REMARKS
REEDSBURG      FLURRIES  20  17  86 N6        30.29R WCI  13
BARABOO/DELLS  MOCLDY    19  15  82 N7        30.29R WCI  10
LONE ROCK      CLOUDY    26  16  65 NW12      30.31R WCI  16
MINERAL POINT  FLURRIES  25  21  86 NW7       30.28R WCI  17
MADISON        CLOUDY    22  16  78 N10       30.28R WCI  11
MIDDLETON      CLOUDY    24  21  87 NW8       30.28R WCI  15
WATERTOWN      CLOUDY    21  19  93 NW8       30.25R WCI  12
MONROE         CLOUDY    23  21  93 NW9       30.26R WCI  13
JANESVILLE     LGT SNOW  23  21  93 W5        30.26R WCI  17
$$

WIZ051-052-058>065-066-070>072-271200-
SOUTHEAST WISCONSIN

CITY           SKY/WX    TMP DP  RH WIND       PRES   REMARKS
MILWAUKEE      MOCLDY    24  18  77 NW10      30.23R WCI  14
WAUKESHA       CLOUDY    21  19  93 NW10      30.25R WCI  10
MILWAUKEE/TIMM CLOUDY    23  19  86 NW10      30.24R WCI  12
RACINE         CLOUDY    24  19  81 NW9       30.24S WCI  14
BURLINGTON     CLOUDY    20  18  90 NW13      30.23R WCI   7
KENOSHA        CLOUDY    23  19  85 NW8       30.23R WCI  14
FOND DU LAC    FLURRIES  22  17  81 NW12      30.25R WCI  10
SHEBOYGAN      CLOUDY    23  18  81 NW12      30.22R WCI  12
WEST BEND      CLOUDY    23  19  86 NW7       30.23R WCI  15
JUNEAU         CLOUDY    21  18  87 NW6       30.26R WCI  13
$$

LSZ147-162-271200-
LAKE SUPERIOR

STATION/POSITION TIME  TEMP    WIND        PRES    WAVE
                       AIR SEA DIR/SP/G            HT/PER
                 (UTC) (F)     (DEG/KT/KT) (MB)    (FT/S)
DEVILS ISLAND    1000    8      10/ 14/ 17 1031.5S
PORT WING        1000    9     300/ 13/ 15 1030.5
SAXON HARBOR     1000   14     340/ 12/ 16 1028.4S
$$

LMZ867-665-643>646-271200-
LAKE MICHIGAN

STATION/POSITION TIME  TEMP    WIND        PRES    WAVE
                       AIR SEA DIR/SP/G            HT/PER
                 (UTC) (F)     (DEG/KT/KT) (MB)    (FT/S)
CHAMBERS ISLAND  1000   23     330/ 18/ 25 1023.4S
N MID LAKE BUOY  0950   27 42  340/ 23/ 27 1022.5R   4/ 5
NORTHPORT PIER   1005   25     330/ 21     1023.0R
SISTER BAY       1013          360/ 30/ 35   N/A
KEWAUNEE LAKESHO 1000   24     330/  9/ 14 1022.1R
SHEBOYGAN LAKESH 1000   24 36  310/ 11/ 16 1024.4R
PORT WASHINGTON  1000   24     300/  5/  9 1024.4
MILWAUKEE LAKESH 1000   25     320/  7/  9   N/A
S MID LAKE BUOY  0950   32 42  320/ 17/ 21 1022.8R   4/ 5
KENOSHA   LAKESH 1000   22     310/  9/ 13 1023.4S
$$

TC  - TEMPERATURE IN CELSIUS
VSB - VISIBILITY IN STATUTE MILES
WCI - WIND CHILL INDEX
HX  - HEAT INDEX



USA.gov is the U.S. government's official web portal to all federal, state and local government web resources and services.